Austin, TX

11:44 AM CST on February 22, 2017 (GMT -0600)
Austin Bergstrom International

Weather History for KAUS - April, 2014

Change the Weather History Date:

Friday, April 4, 2014

  Actual Average Record
Temperature  
Mean Temperature 64 °F 64 °F  
Max Temperature 74 °F 77 °F 92 °F (1958)
Min Temperature 53 °F 52 °F 36 °F (1987)
Degree Days  
Heating Degree Days 1 3  
Month to date heating degree days 1 15  
Since 1 July heating degree days 2098 1852  
Cooling Degree Days 0 3  
Month to date cooling degree days 35 12  
Year to date cooling degree days 84 70  
Growing Degree Days 12 (Base 50)    
Moisture  
Dew Point 41 °F    
Average Humidity 62    
Maximum Humidity 97    
Minimum Humidity 26    
Precipitation  
Precipitation T in 0.06 in 1.98 in (1991)
Month to date precipitation T 0.27  
Year to date precipitation 2.28 7.56  
Snow  
Snow 0.00 in - - ()
Month to date snowfall 0.0  
Since 1 July snowfall T  
Snow Depth 0.00 in    
Sea Level Pressure  
Sea Level Pressure 30.01 in    
Wind  
Wind Speed 16 mph (North)    
Max Wind Speed 30 mph    
Max Gust Speed 37 mph    
Visibility 9 miles    
Events Rain    
T = Trace of Precipitation, MM = Missing Value Source: NWS Daily Summary

Daily Weather History Graph

Daily Weather History Graph

Search for Another Location

Airport or City:

Trip Planner

Search our weather history database for the weather conditions in past years. The results will help you decide how hot, cold, wet, or windy it might be!

Date:

Astronomy

Apr. 04, 2014 Rise Set
Actual Time 7:16 AM CDT 7:51 PM CDT
Civil Twilight 6:52 AM CDT 8:15 PM CDT
Nautical Twilight 6:23 AM CDT 8:44 PM CDT
Astronomical Twilight 5:54 AM CDT 9:12 PM CDT
Moon 10:49 AM CDT (4/4) No Moon Set
Length of Visible Light 13h 23m
Length of Day
12h 35m
Waxing Crescent, 25% of the Moon is Illuminated
Apr 4
Waxing Crescent
Apr 7
First Quarter
Apr 15
Full
Apr 22
Last Quarter
Apr 29
New

Hourly Weather History & Observations

Time (CDT) Temp. Dew Point Humidity Pressure Visibility Wind Dir Wind Speed Gust Speed Precip Events Conditions
12:31 AM 70.0 °F 68.0 °F 93% 29.82 in 5.0 mi West 3.5 mph - N/A   Partly Cloudy
12:53 AM 69.1 °F 68.0 °F 96% 29.81 in 5.0 mi West 5.8 mph - N/A   Mostly Cloudy
1:12 AM 70.0 °F 69.1 °F 97% 29.85 in 4.0 mi West 3.5 mph - N/A   Mostly Cloudy
1:34 AM 71.1 °F 69.1 °F 93% 29.85 in 5.0 mi NW 5.8 mph - N/A   Scattered Clouds
1:53 AM 73.0 °F 60.1 °F 64% 29.85 in 7.0 mi NNW 8.1 mph - N/A   Scattered Clouds
2:53 AM 71.1 °F 42.1 °F 35% 29.89 in 8.0 mi North 11.5 mph - 0.00 in Rain Light Rain
3:53 AM 66.9 °F 33.1 °F 28% 29.91 in 9.0 mi North 5.8 mph - 0.00 in   Partly Cloudy
4:53 AM 64.9 °F 37.9 °F 37% 29.94 in 9.0 mi North 21.9 mph 28.8 mph N/A   Clear
5:53 AM 60.1 °F 39.0 °F 46% 29.97 in 10.0 mi North 16.1 mph 24.2 mph N/A   Clear
6:53 AM 57.0 °F 37.0 °F 47% 30.01 in 10.0 mi North 15.0 mph 23.0 mph N/A   Scattered Clouds
7:53 AM 55.9 °F 34.0 °F 44% 30.06 in 10.0 mi North 21.9 mph 26.5 mph N/A   Mostly Cloudy
8:53 AM 54.0 °F 33.1 °F 45% 30.08 in 10.0 mi North 27.6 mph - N/A   Scattered Clouds
9:53 AM 57.9 °F 33.1 °F 39% 30.10 in 10.0 mi North 25.3 mph 32.2 mph N/A   Mostly Cloudy
10:53 AM 60.1 °F 32.0 °F 35% 30.13 in 10.0 mi NNE 24.2 mph 31.1 mph N/A   Mostly Cloudy
11:53 AM 63.0 °F 33.1 °F 33% 30.13 in 10.0 mi NNE 25.3 mph - N/A   Mostly Cloudy
12:53 PM 66.0 °F 35.1 °F 32% 30.12 in 10.0 mi North 21.9 mph 27.6 mph N/A   Mostly Cloudy
1:53 PM 68.0 °F 34.0 °F 28% 30.09 in 10.0 mi NE 23.0 mph 31.1 mph N/A   Mostly Cloudy
2:53 PM 69.1 °F 33.1 °F 26% 30.07 in 10.0 mi NE 21.9 mph 28.8 mph N/A   Mostly Cloudy
3:53 PM 70.0 °F 35.1 °F 28% 30.04 in 10.0 mi NNE 17.3 mph 27.6 mph N/A   Mostly Cloudy
4:53 PM 70.0 °F 34.0 °F 27% 30.03 in 10.0 mi NE 17.3 mph 28.8 mph N/A   Mostly Cloudy
5:53 PM 69.1 °F 34.0 °F 27% 30.03 in 10.0 mi NE 15.0 mph - N/A   Mostly Cloudy
6:53 PM 66.0 °F 34.0 °F 30% 30.04 in 10.0 mi ENE 12.7 mph - N/A   Mostly Cloudy
7:53 PM 63.0 °F 35.1 °F 35% 30.05 in 10.0 mi NE 9.2 mph - N/A   Mostly Cloudy
8:53 PM 62.1 °F 37.0 °F 39% 30.06 in 10.0 mi NNE 10.4 mph - N/A   Mostly Cloudy
9:53 PM 59.0 °F 37.9 °F 46% 30.08 in 10.0 mi NNE 8.1 mph - N/A   Mostly Cloudy
10:53 PM 60.1 °F 37.9 °F 44% 30.08 in 10.0 mi North 9.2 mph - N/A   Mostly Cloudy
11:53 PM 54.0 °F 39.0 °F 57% 30.06 in 10.0 mi North 9.2 mph - N/A   Mostly Cloudy